Regional Weather Roundup
Issued by NWS Upton, NY

Current Version | Previous Version | Graphics & Text | Print | Product List | Glossary Off
Versions: 1 2 3 4 5 6 7 8 9 10 11 12 13 14 15 16 17 18 19 20 21 22 23 24 25 26 27

000
ASUS41 KOKX 261804
RWROKX

REGIONAL WEATHER ROUNDUP
NATIONAL WEATHER SERVICE NEW YORK NY
200 PM EDT TUE JUL 26 2016

NOTE: "FAIR" INDICATES FEW OR NO CLOUDS BELOW 12,000 FEET WITH NO
SIGNIFICANT WEATHER AND/OR OBSTRUCTIONS TO VISIBILITY.

NYZ071-072-176-178-NJZ106-104-261900-
NEW YORK CITY METRO AREA

CITY           SKY/WX    TMP DP  RH WIND       PRES   REMARKS
Central Park   PTSUNNY   86  65  49 W6        29.90F
LaGuardia APRT PTSUNNY   89  64  43 NW10G24   29.86F HX  90
Kennedy INTL   PTSUNNY   91  62  37 NW13      29.88F HX  91
Newark/Liberty PTSUNNY   90  64  42 W10G22    29.87F HX  91
Bronx Bot Gard   N/A     88  63  42 NW2       29.89R
Wall St Helipt PTCLDY    91  64  40 W3        29.88F HX  93
Teterboro      PTSUNNY   88  64  44 W14G21    29.86F
$$

NYZ177-179-078>081-261900-
LONG ISLAND NEW YORK

CITY           SKY/WX    TMP DP  RH WIND       PRES   REMARKS
Farmingdale    SUNNY     91  62  37 NW10      29.87F HX  91
MacArthur/ISP  MOSUNNY   90  63  40 NW16G24   29.86F HX  91
Shirley        MOSUNNY   90  64  42 W16G22    29.87F HX  91
Riverhead      NOT AVBL
Westhampton    MOSUNNY   90  62  39 NW14G21   29.87F HX  90
Southhampton     N/A     88  66  48 NW12      29.82F HX  90
Bridgehampton    N/A     88  70  55 N3        29.85F HX  92
East Hampton   FAIR      87  65  47 W9G17     29.85F
Montauk          N/A     85  67  54 W10G18    29.85F
$$

NYZ052-065-067-261900-
HUDSON VALLEY

CITY           SKY/WX    TMP DP  RH WIND       PRES   REMARKS
White Plains   MOSUNNY   87  63  44 NW12      29.88F
Newburgh       PTSUNNY   84  64  51 NW7G18    29.91F
Montgomery     PTSUNNY   86  65  49 NW8       29.90S
Poughkeepsie   MOSUNNY   89  63  41 NW9       29.87S HX  90
Albany         MOSUNNY   85  62  46 W14G22    29.89F
$$

NJZ001-105-106-008-010-013-015-019>022-104-261900-
NEW JERSEY

CITY           SKY/WX    TMP DP  RH WIND       PRES   REMARKS
Newark/Liberty PTSUNNY   90  64  42 W10G22    29.87F HX  91
Teterboro      PTSUNNY   88  64  44 W14G21    29.86F
Caldwell       MOSUNNY   90  64  42 NW10      29.89F HX  91
Morristown     MOSUNNY   86  66  51 NW7G15    29.89F
Somerville     CLOUDY    90  68  48 W8        29.88F HX  94
Linden         FAIR      89  64  42 NW14G20   29.90F HX  90
Sussex         MOSUNNY   86  66  51 NW10      29.92S
Abdover          N/A     86  63  45 VRB5      29.92F
Trenton        MOSUNNY   88  65  46 NW8       29.90F HX  90
Millville      CLOUDY    92  66  42 W10       29.93S HX  94
Atlantic City  PTSUNNY   89  69  51 NW7       29.92S HX  93
Wrightstown    MOSUNNY   90  67  47 W13       29.88F HX  93
Toms River     MOSUNNY   90  65  43 VRB7G20   29.91F HX  92
Belmar         SUNNY     90  66  45 W13       29.91F HX  92
$$

PAZ047>061-062-071-261900-
EASTERN PENNSYLVANIA

CITY           SKY/WX    TMP DP  RH WIND       PRES   REMARKS
Philadelphia   PTSUNNY   91  65  41 NW16G23   29.92S HX  93
Allentown      MOSUNNY   86  66  51 W9        29.93S
Scranton       SUNNY     86  62  44 N6        29.95F
$$

CTZ002-004>006-009-010-012-RIZ004-006-007-MAZ004-011-015-261900-
SOUTHERN NEW ENGLAND
 IN CT

CITY           SKY/WX    TMP DP  RH WIND       PRES   REMARKS
Bradley INTL   MOSUNNY   91  60  35 NW14G21   29.84S HX  90
Hartford       MOSUNNY   92  61  35 NW12G20   29.83F HX  92
Danbury        MOSUNNY   86  63  45 W10       29.89F
Wtrbury/Oxford NOT AVBL
Bridgeport     MOSUNNY   89  64  43 W12G20    29.85F HX  90
Meriden        MOSUNNY   91  62  37 NW12G18   29.85F HX  91
New Haven      SUNNY     87  66  49 NW6       29.85F
Chester        FAIR      88  63  42 NW8G16    29.86F
Groton         MOSUNNY   85  70  60 SW13      29.82F
Wilimantic     NOT AVBL

 IN RI

CITY           SKY/WX    TMP DP  RH WIND       PRES   REMARKS
Providence     MOSUNNY   90  61  37 W17       29.81S HX  90
Block Island   SUNNY     83  68  60 W15G22    29.84F
Westerly       MOSUNNY   84  67  56 SW13G25   29.83F
 IN MA

CITY           SKY/WX    TMP DP  RH WIND       PRES   REMARKS
Boston         MOSUNNY   92  57  30 NW12      29.77S HX  90
Worchester     PTSUNNY   85  56  37 W20       29.86S
Westfield      MOSUNNY   90  59  35 W15G23    29.85S
Provincetown   SUNNY     88  65  46 VRB3      29.79F HX  90
Nantucket      SUNNY     81  69  67 W16       29.81F
$$

ANZ330-335-338-340-345-350-353-355-261900-
COASTAL MARINE OBSERVATIONS


STATION/POSITION TIME  SKY/WX   TEMP    WIND        PRES    VSBY  WAVE
                                AIR SEA DIR/SP/G                  HT/PER
                 (UTC)          (F)     (DEG/KT/KT) (MB)    (MI)  (FT/S)
NY HARB ENTRANCE 1650            78 74  250/  8/ 10 1012.1          2/ 7
20S FIRE ISLAND  1650            76 75  260/  8/ 10 1011.9          3/ 6
GREAT SOUTH BAY  1730            85 81  320/ 14/ 17   N/A
23 SSW MONTAUK P 1650            72 70  230/  8/ 10 1011.7          2/ 6
15 E BARNEGAT LI 1722               79                N/A           3/ 7
HUDSON CANYON    1650            77 78              1012.6          4/ 7
KINGS POINT      1700            83 73              1011.8
EXECUTION ROCKS  1700            83     300/  8/ 12   N/A
CENTRAL LI SOUND 1700            76 74  260/ 12/ 14   N/A           1/ 3
EASTERN LI SOUND 1700            73 69  250/ 14/ 16   N/A
ROBBINS REEF     1700            85     310/ 15/ 19 1011.5
$$


>>>>>>>>>>>>>>>>>>>>>>>>>>>> KEY <<<<<<<<<<<<<<<<<<<<<<<<<<<
>                                                          <
>     SKY/WX - Sky Condition/Present Weather               <
>     TMP    - Temperature in Fahrenheit                   <
>     DP     - Dew Point in Fahrenheit                     <
>     RH     - Relative Humidity in Percent                <
>     WIND   - Direction (from) and Speed in MPH           <
>     PRES   - Mean Sea Level Pressure (inches of Hg)      <
>     WCI    - Wind Chill Index                            <
>     VSB    - VISIBILITY IN MILES                         <
>     HX     - HEAT INDEX                                  <
>     TC     - TEMPERATURE IN CELSIUS                      <
>     VRB    - VARIABLE WIND DIRECTION                     <
>                                                          <
>>>>>>>>>>>>>>>>>>>>>>>>>>>> KEY <<<<<<<<<<<<<<<<<<<<<<<<<<<




USA.gov is the U.S. government's official web portal to all federal, state and local government web resources and services.